This is the latest recevied weather packets stored in our database for station/object KG7DQI-13. If no packets are shown the sender has not sent any weather packets the latest 1 day(s).
| Time | Temp. | Humidity | Pressure | Rain* | Wind** | Luminosity | Snow |
|---|---|---|---|---|---|---|---|
| 1777989238 | 5° C | 88% | 911.5 hPa | 0 mm | 0 m/s | 79 W/m² | - |
| 1777988330 | 3.89° C | 90% | 911.3 hPa | 0 mm | 0 m/s | 51 W/m² | - |
| 1777987407 | 3.33° C | 89% | 911.1 hPa | 0 mm | 0 m/s | 14 W/m² | - |
| 1777986501 | 3.33° C | 87% | 911.1 hPa | 0 mm | 0 m/s | 7 W/m² | - |
| 1777985636 | 3.89° C | 87% | 911 hPa | 0 mm | 0 m/s | 0 W/m² | - |
| 1777984730 | 3.89° C | 89% | 911 hPa | 0 mm | 0 m/s | 0 W/m² | - |
| 1777983837 | 4.44° C | 90% | 911 hPa | 0 mm | 0 m/s | 0 W/m² | - |
| 1777982899 | 4.44° C | 85% | 910.8 hPa | 0 mm | 0 m/s | 0 W/m² | - |
| 1777981952 | 4.44° C | 87% | 910.9 hPa | 0 mm | 0 m/s | 0 W/m² | - |
| 1777981029 | 3.89° C | 85% | 911 hPa | 0 mm | 0 m/s | 0 W/m² | - |
| 1777980127 | 4.44° C | 86% | 910.9 hPa | 0 mm | 0 m/s | 0 W/m² | - |
| 1777979249 | 4.44° C | 87% | 910.9 hPa | 0 mm | 0 m/s | 0 W/m² | - |
| 1777978372 | 3.89° C | 84% | 910.8 hPa | 0 mm | 0 m/s | 0 W/m² | - |
| 1777977479 | 4.44° C | 82% | 910.8 hPa | 0 mm | 0 m/s | 0 W/m² | - |
| 1777976554 | 5° C | 81% | 910.7 hPa | 0 mm | 0 m/s | 0 W/m² | - |
| 1777975666 | 5.56° C | 82% | 910.5 hPa | 0 mm | 0 m/s | 0 W/m² | - |
| 1777974803 | 5.56° C | 79% | 910.7 hPa | 0 mm | 0 m/s | 0 W/m² | - |
| 1777973928 | 6.11° C | 81% | 910.6 hPa | 0 mm | 0 m/s | 0 W/m² | - |
| 1777972996 | 6.11° C | 82% | 910.6 hPa | 0 mm | 0 m/s | 0 W/m² | - |
| 1777972131 | 6.67° C | 81% | 910.4 hPa | 0 mm | 0 m/s | 0 W/m² | - |
| 1777971259 | 6.67° C | 79% | 910.4 hPa | 0 mm | 0 m/s | 0 W/m² | - |
| 1777970364 | 6.67° C | 76% | 910.5 hPa | 0 mm | 0 m/s | 0 W/m² | - |
* Rain latest hour (hover to see other rain measurements)
** Current wind speed in m/s (hover to see current wind gust speed)